Time,TemperatureF,DewpointF,PressureIn,WindDirection,WindDirectionDegrees,WindSpeedMPH,WindSpeedGustMPH,Humidity,HourlyPrecipIn,Conditions,Clouds,dailyrainin,SoftwareType,DateUTC
2014-09-01 00:05:00,75.5,74.0,30.02,SW,227,2.0,5.0,95,0.00,,,0.00,Wunderground v.1.15,2014-09-01 04:05:00,
2014-09-01 00:10:00,75.4,73.9,30.02,SW,221,1.0,1.0,95,0.00,,,0.00,Wunderground v.1.15,2014-09-01 04:10:00,
2014-09-01 00:20:00,75.2,74.0,30.02,SSW,203,1.0,1.0,96,0.00,,,0.00,Wunderground v.1.15,2014-09-01 04:20:00,
2014-09-01 00:25:00,75.1,73.9,30.02,SW,219,1.0,5.0,96,0.00,,,0.00,Wunderground v.1.15,2014-09-01 04:25:00,
2014-09-01 00:30:00,75.1,73.9,30.02,SW,219,1.0,1.0,96,0.00,,,0.00,Wunderground v.1.15,2014-09-01 04:30:00,
2014-09-01 00:35:00,75.1,73.9,30.02,SW,217,0.0,5.0,96,0.00,,,0.00,Wunderground v.1.15,2014-09-01 04:35:00,
2014-09-01 00:45:00,75.0,73.8,30.02,SSW,205,1.0,5.0,96,0.00,,,0.00,Wunderground v.1.15,2014-09-01 04:45:00,
2014-09-01 00:50:00,74.7,73.5,30.02,SE,142,0.0,5.0,96,0.00,,,0.00,Wunderground v.1.15,2014-09-01 04:50:00,
2014-09-01 00:55:00,74.3,73.1,30.02,SE,142,0.0,5.0,96,0.00,,,0.00,Wunderground v.1.15,2014-09-01 04:55:00,
2014-09-01 01:00:00,74.0,73.1,30.02,SE,142,0.0,5.0,97,0.00,,,0.00,Wunderground v.1.15,2014-09-01 05:00:00,
2014-09-01 01:10:00,73.8,73.2,30.02,South,190,0.0,5.0,98,0.00,,,0.00,Wunderground v.1.15,2014-09-01 05:10:00,
2014-09-01 01:15:00,73.8,73.2,30.02,South,190,0.0,5.0,98,0.00,,,0.00,Wunderground v.1.15,2014-09-01 05:15:00,
2014-09-01 01:20:00,73.5,72.9,30.02,South,190,0.0,5.0,98,0.00,,,0.00,Wunderground v.1.15,2014-09-01 05:20:00,
2014-09-01 01:25:00,73.2,72.6,30.02,South,190,0.0,5.0,98,0.00,,,0.00,Wunderground v.1.15,2014-09-01 05:25:00,
2014-09-01 01:35:00,73.0,72.7,30.02,SE,130,0.0,5.0,99,0.00,,,0.00,Wunderground v.1.15,2014-09-01 05:35:00,
2014-09-01 01:40:00,73.0,72.7,30.01,SE,130,1.0,1.0,99,0.00,,,0.00,Wunderground v.1.15,2014-09-01 05:40:00,
2014-09-01 01:45:00,72.8,72.5,30.01,SE,133,0.0,5.0,99,0.00,,,0.00,Wunderground v.1.15,2014-09-01 05:45:00,
2014-09-01 01:50:00,72.9,72.6,30.02,South,180,0.0,5.0,99,0.00,,,0.00,Wunderground v.1.15,2014-09-01 05:50:00,
2014-09-01 02:00:00,72.9,72.6,30.01,South,180,0.0,5.0,99,0.00,,,0.00,Wunderground v.1.15,2014-09-01 06:00:00,
2014-09-01 02:05:00,73.0,72.7,30.01,South,190,0.0,5.0,99,0.00,,,0.00,Wunderground v.1.15,2014-09-01 06:05:00,
2014-09-01 02:10:00,72.9,72.6,30.01,South,189,0.0,5.0,99,0.00,,,0.00,Wunderground v.1.15,2014-09-01 06:10:00,
2014-09-01 02:15:00,72.7,72.4,30.01,South,184,0.0,5.0,99,0.00,,,0.00,Wunderground v.1.15,2014-09-01 06:15:00,
2014-09-01 02:20:00,72.7,72.4,30.01,South,170,0.0,5.0,99,0.00,,,0.00,Wunderground v.1.15,2014-09-01 06:20:00,
2014-09-01 02:30:00,72.6,72.6,30.01,SSW,198,1.0,5.0,100,0.00,,,0.00,Wunderground v.1.15,2014-09-01 06:30:00,
2014-09-01 02:35:00,72.6,72.6,30.01,South,179,1.0,5.0,100,0.00,,,0.00,Wunderground v.1.15,2014-09-01 06:35:00,
2014-09-01 02:40:00,72.5,72.5,30.01,South,177,2.0,2.0,100,0.00,,,0.00,Wunderground v.1.15,2014-09-01 06:40:00,
2014-09-01 02:50:00,72.3,72.3,30.02,SW,215,1.0,5.0,100,0.00,,,0.00,Wunderground v.1.15,2014-09-01 06:50:00,
2014-09-01 02:55:00,72.2,72.2,30.02,South,180,1.0,5.0,100,0.00,,,0.00,Wunderground v.1.15,2014-09-01 06:55:00,
2014-09-01 03:00:00,72.2,72.2,30.01,South,180,1.0,5.0,100,0.00,,,0.00,Wunderground v.1.15,2014-09-01 07:00:00,
2014-09-01 03:05:00,72.2,72.2,30.01,SSW,209,1.0,5.0,100,0.00,,,0.00,Wunderground v.1.15,2014-09-01 07:05:00,
2014-09-01 03:15:00,72.2,72.2,30.02,SW,227,3.0,3.0,100,0.00,,,0.00,Wunderground v.1.15,2014-09-01 07:15:00,
2014-09-01 03:20:00,72.2,72.2,30.02,SSW,203,3.0,5.0,100,0.00,,,0.00,Wunderground v.1.15,2014-09-01 07:20:00,
2014-09-01 03:25:00,72.1,72.1,30.02,WSW,241,2.0,5.0,100,0.00,,,0.00,Wunderground v.1.15,2014-09-01 07:25:00,
2014-09-01 03:35:00,72.0,72.0,30.01,SSE,162,1.0,5.0,100,0.00,,,0.00,Wunderground v.1.15,2014-09-01 07:35:00,
2014-09-01 03:40:00,72.0,72.0,30.01,South,182,1.0,1.0,100,0.00,,,0.00,Wunderground v.1.15,2014-09-01 07:40:00,
2014-09-01 03:45:00,71.9,71.9,30.01,South,186,1.0,5.0,100,0.00,,,0.00,Wunderground v.1.15,2014-09-01 07:45:00,
2014-09-01 03:50:00,71.9,71.9,30.01,South,188,0.0,5.0,100,0.00,,,0.00,Wunderground v.1.15,2014-09-01 07:50:00,
2014-09-01 03:55:00,71.8,71.8,30.01,South,188,0.0,5.0,100,0.00,,,0.00,Wunderground v.1.15,2014-09-01 07:55:00,